Satellite: ISS
Catalog number: 25544
Epoch time:      08318.67148292
Element set:     645
Inclination:      051.6436 deg
RA of node:       330.0973 deg
Eccentricity:    0.0003809
Arg of perigee:   346.3452 deg
Mean anomaly:     121.7147 deg
Mean motion:   15.72579683 rev/day
Decay rate:     1.0913e-04 rev/day^2
Epoch rev:           57205
Checksum:              307

Satellite: CO-58
Catalog number: 28895
Epoch time:      08318.41859607
Element set:     168
Inclination:      098.0807 deg
RA of node:       208.7543 deg
Eccentricity:    0.0016948
Arg of perigee:   305.0566 deg
Mean anomaly:     054.9030 deg
Mean motion:   14.59714428 rev/day
Decay rate:       1.49e-06 rev/day^2
Epoch rev:           16225
Checksum:              340

Satellite: FALCON
Catalog number: 30776
Epoch time:      08318.23492545
Element set:     437
Inclination:      035.4340 deg
RA of node:       329.4853 deg
Eccentricity:    0.0001115
Arg of perigee:   254.5624 deg
Mean anomaly:     105.4968 deg
Mean motion:   15.03101047 rev/day
Decay rate:       4.63e-06 rev/day^2
Epoch rev:            9258
Checksum:              281

Satellite: MAST
Catalog number: 31126
Epoch time:      08318.63034323
Element set:     460
Inclination:      098.0215 deg
RA of node:       016.9496 deg
Eccentricity:    0.0093895
Arg of perigee:   228.3673 deg
Mean anomaly:     130.9457 deg
Mean motion:   14.53457801 rev/day
Decay rate:       1.40e-06 rev/day^2
Epoch rev:            8372
Checksum:              293

Satellite: CAPE1
Catalog number: 31130
Epoch time:      08318.45506467
Element set:     452
Inclination:      098.0231 deg
RA of node:       015.4520 deg
Eccentricity:    0.0102006
Arg of perigee:   232.7299 deg
Mean anomaly:     126.4568 deg
Mean motion:   14.52007742 rev/day
Decay rate:       1.96e-06 rev/day^2
Epoch rev:            8338
Checksum:              271

Satellite: COMPASS
Catalog number: 32787
Epoch time:      08318.72399283
Element set:     199
Inclination:      097.9720 deg
RA of node:       018.0467 deg
Eccentricity:    0.0016250
Arg of perigee:   016.2942 deg
Mean anomaly:     343.8779 deg
Mean motion:   14.81495165 rev/day
Decay rate:       1.73e-06 rev/day^2
Epoch rev:            2954
Checksum:              332

Satellite: AAUSAT2
Catalog number: 32788
Epoch time:      08318.84425797
Element set:     199
Inclination:      097.9738 deg
RA of node:       018.1938 deg
Eccentricity:    0.0015810
Arg of perigee:   018.8039 deg
Mean anomaly:     341.3708 deg
Mean motion:   14.81608214 rev/day
Decay rate:        3.2e-07 rev/day^2
Epoch rev:            2956
Checksum:              330

Satellite: DO-64
Catalog number: 32789
Epoch time:      08318.85900905
Element set:     210
Inclination:      097.9753 deg
RA of node:       018.2598 deg
Eccentricity:    0.0015932
Arg of perigee:   015.8306 deg
Mean anomaly:     344.3394 deg
Mean motion:   14.81528415 rev/day
Decay rate:       3.41e-06 rev/day^2
Epoch rev:            2956
Checksum:              323

Satellite: CO-66
Catalog number: 32791
Epoch time:      08318.87844734
Element set:     193
Inclination:      097.9759 deg
RA of node:       018.2250 deg
Eccentricity:    0.0016511
Arg of perigee:   014.1426 deg
Mean anomaly:     346.0227 deg
Mean motion:   14.81343694 rev/day
Decay rate:       3.65e-06 rev/day^2
Epoch rev:            2953
Checksum:              318

Satellite: RS-30
Catalog number: 32953
Epoch time:      08317.75278079
Element set:     156
Inclination:      082.5048 deg
RA of node:       031.1984 deg
Eccentricity:    0.0017848
Arg of perigee:   291.6457 deg
Mean anomaly:     068.2724 deg
Mean motion:   12.42998120 rev/day
Decay rate:        1.0e-07 rev/day^2
Epoch rev:            2150
Checksum:              303

/EX




_______________________________________________
Via the Keps mailing list courtesy of AMSAT-NA
http://amsat.org/mailman/listinfo/keps

--- ViaMAIL!/WC v1.60d
 * Origin: Chowdanet (401-724-4410) telnet://chowdanet.com  (1:323/120)